Location: Newark
(35.2672°N, 80.7344°W)
Time: 14:39:34
(UTC+00:00)

Transit 2A Rocket - Pass Details

Date: 01 February 2020
Orbit: 591 x 912 km, 66.7° (Epoch: 29 February)

Event Time Altitude Azimuth Distance (km) Brightness Sun altitude
Rises 07:30:53 0° 171° (S) 2,855 - -58.8°
Reaches altitude 10° 07:33:39 10° 154° (SSE) 1,930 - -58.3°
Maximum altitude 07:36:43 19° 108° (ESE) 1,417 - -57.8°
Drops below altitude 10° 07:39:46 10° 62° (ENE) 1,921 - -57.2°
Sets 07:42:30 0° 45° (NE) 2,838 - -56.7°
